Date String (YYYY-MM-DD hh:mm:ss) UTC,Instrument flags,Ambient pressure (hPa),Sample flow (lpm),Bypass flow (lpm),Sample temperature (°C),Ambient temperature (°C),ASC tube jacket temperature (°C),LED temperature (°C),Box temperature (°C),Sample RH (%),Span deviation,Mass concentration (μg/m³),Mass concentration (μg/m³),Mass concentration (μg/m³)
DateTimeUTC,F1_M11,P_M11,Q1_M11,Q2_M11,T1_M11,T2_M11,T3_M11,T4_M11,T5_M11,U1_M11,ZSPAN_M11,X0_M11,X2_M11,X1_M11
2022-07-29 03:00:00,,0830.8,5.00,0.00,31.3,29.1,00.0,39.7,32.3,34.5,0000.5,0010.57,0007.00,0006.49
2022-07-29 03:01:00,,0830.8,5.00,0.00,31.3,29.1,00.0,39.7,32.4,34.4,0000.2,0010.85,0007.07,0006.51
2022-07-29 03:02:00,,0830.8,5.00,0.00,31.2,29.1,00.0,39.7,32.4,34.4,0000.1,0010.89,0007.10,0006.55
2022-07-29 03:03:00,,0830.9,5.00,0.00,31.2,28.9,00.0,39.7,32.3,34.5,0000.5,0010.88,0007.10,0006.59
2022-07-29 03:04:00,,0830.9,5.01,0.00,31.2,28.2,00.0,39.7,32.1,34.7,0000.6,0011.24,0007.09,0006.62
2022-07-29 03:05:00,,0830.9,4.99,0.00,31.1,27.9,00.0,39.6,32.1,35.0,0000.9,0011.23,0007.12,0006.65
2022-07-29 03:06:00,,0830.9,5.01,0.00,31.0,27.8,00.0,39.6,32.0,35.2,0000.9,0011.22,0007.13,0006.67
2022-07-29 03:07:00,,0830.9,4.99,0.00,31.2,27.9,00.0,39.5,32.1,34.9,0001.2,0011.24,0007.12,0006.65
2022-07-29 03:08:00,,0830.9,5.01,0.00,31.3,28.0,00.0,39.5,32.2,34.5,0001.3,0011.22,0007.09,0006.62
2022-07-29 03:09:00,,0830.9,5.00,0.00,31.4,28.1,00.0,39.5,32.2,34.4,0001.2,0011.09,0007.02,0006.57
2022-07-29 03:10:00,,0830.9,5.00,0.00,31.4,28.2,00.0,39.5,32.2,34.3,0000.9,0011.09,0007.00,0006.55
2022-07-29 03:11:00,,0831.0,5.01,0.00,31.4,28.4,00.0,39.6,32.2,34.2,0000.8,0010.51,0006.96,0006.52
2022-07-29 03:12:00,,0831.0,4.99,0.00,31.4,28.5,00.0,39.6,32.2,34.2,0001.0,0010.04,0006.91,0006.48
2022-07-29 03:13:00,,0831.0,4.99,0.00,31.4,28.6,00.0,39.6,32.2,34.3,0001.0,0010.06,0006.89,0006.46
2022-07-29 03:14:00,,0831.0,5.01,0.00,31.4,28.7,00.0,39.6,32.2,34.3,0000.8,0010.01,0006.85,0006.43
2022-07-29 03:15:00,,0831.0,5.01,0.00,31.3,28.8,00.0,39.7,32.2,34.4,0000.7,0009.44,0006.83,0006.41
2022-07-29 03:16:00,,0831.0,4.99,0.00,31.3,28.8,00.0,39.7,32.3,34.4,0000.5,0009.36,0006.80,0006.39
2022-07-29 03:17:00,,0831.1,5.02,0.00,31.3,28.9,00.0,39.7,32.3,34.4,0000.7,0009.31,0006.79,0006.38
2022-07-29 03:18:00,,0831.1,5.00,0.00,31.3,28.9,00.0,39.7,32.3,34.5,0001.0,0009.38,0006.81,0006.39
2022-07-29 03:19:00,,0831.1,4.99,0.00,31.2,29.0,00.0,39.7,32.3,34.6,0000.9,0009.45,0006.86,0006.43
2022-07-29 03:20:00,,0831.1,5.00,0.00,31.2,29.0,00.0,39.7,32.3,34.6,0001.1,0009.61,0006.95,0006.49
2022-07-29 03:21:00,,0831.1,5.00,0.00,31.2,29.0,00.0,39.7,32.4,34.7,0001.0,0009.53,0006.96,0006.53
2022-07-29 03:22:00,,0831.0,5.01,0.00,31.2,28.6,00.0,39.7,32.2,34.6,0000.9,0009.44,0006.95,0006.55
2022-07-29 03:23:00,,0831.0,5.00,0.00,31.1,28.0,00.0,39.6,32.1,34.7,0000.8,0009.52,0006.98,0006.59
2022-07-29 03:24:00,,0831.0,4.99,0.00,31.0,27.8,00.0,39.6,32.0,34.8,0000.7,0009.52,0007.02,0006.63
2022-07-29 03:25:00,,0831.0,5.01,0.00,30.9,27.8,00.0,39.5,32.0,35.2,0000.7,0009.61,0007.08,0006.66
2022-07-29 03:26:00,,0831.0,4.99,0.00,31.1,27.9,00.0,39.5,32.1,34.9,0000.4,0009.63,0007.09,0006.67
2022-07-29 03:27:00,,0831.0,5.01,0.00,31.2,28.0,00.0,39.5,32.2,34.4,0000.1,0009.58,0007.06,0006.66
2022-07-29 03:28:00,,0831.1,5.00,0.00,31.3,28.1,00.0,39.5,32.2,34.3,-000.2,0009.50,0007.01,0006.64
2022-07-29 03:29:00,,0831.1,4.99,0.00,31.3,28.2,00.0,39.5,32.1,34.3,-000.6,0009.64,0007.01,0006.63
2022-07-29 03:30:00,,0831.1,5.01,0.00,31.3,28.4,00.0,39.5,32.1,34.3,-001.0,0009.88,0006.98,0006.62
2022-07-29 03:31:00,,0831.0,4.99,0.00,31.3,28.5,00.0,39.5,32.1,34.3,-001.2,0010.54,0006.94,0006.61
2022-07-29 03:32:00,,0831.0,4.99,0.00,31.2,28.6,00.0,39.5,32.2,34.4,-000.9,0011.10,0006.94,0006.60
2022-07-29 03:33:00,,0831.0,4.99,0.00,31.2,28.6,00.0,39.5,32.2,34.4,-000.6,0011.17,0006.95,0006.59
2022-07-29 03:34:00,,0831.1,5.02,0.00,31.2,28.7,00.0,39.6,32.2,34.3,-000.7,0011.07,0006.92,0006.58
2022-07-29 03:35:00,,0831.0,5.00,0.00,31.2,28.8,00.0,39.6,32.2,34.3,-000.4,0011.16,0006.92,0006.57
2022-07-29 03:36:00,,0831.0,5.01,0.00,31.2,28.9,00.0,39.6,32.2,34.4,-000.4,0011.09,0006.88,0006.56
2022-07-29 03:37:00,,0831.1,5.00,0.00,31.1,28.9,00.0,39.6,32.2,34.5,-000.1,0011.10,0006.90,0006.58
2022-07-29 03:38:00,,0831.0,5.00,0.00,31.1,29.0,00.0,39.6,32.3,34.7,-000.2,0011.13,0006.92,0006.61
2022-07-29 03:39:00,,0831.0,5.00,0.00,31.1,29.0,00.0,39.6,32.3,34.7,0000.1,0011.21,0006.97,0006.64
2022-07-29 03:40:00,,0831.0,5.00,0.00,31.1,29.0,00.0,39.6,32.3,34.7,0000.8,0011.06,0007.01,0006.68
2022-07-29 03:41:00,,0831.0,4.99,0.00,31.1,28.7,00.0,39.6,32.2,34.7,0001.5,0010.85,0007.07,0006.73
2022-07-29 03:42:00,,0831.0,5.01,0.00,31.0,28.0,00.0,39.5,32.1,34.9,0001.6,0010.22,0007.12,0006.76
2022-07-29 03:43:00,,0831.0,4.99,0.00,31.0,27.7,00.0,39.5,32.0,35.2,0001.3,0009.74,0007.15,0006.79
2022-07-29 03:44:00,,0831.0,5.01,0.00,31.1,27.7,00.0,39.5,32.1,35.0,0001.1,0009.69,0007.15,0006.81
2022-07-29 03:45:00,,0831.1,5.01,0.00,31.3,27.8,00.0,39.4,32.2,34.5,0000.9,0010.48,0007.16,0006.80
2022-07-29 03:46:00,,0831.0,5.00,0.00,31.4,27.9,00.0,39.4,32.1,34.3,0000.7,0010.91,0007.14,0006.77
2022-07-29 03:47:00,,0831.0,4.99,0.00,31.4,28.1,00.0,39.4,32.1,34.3,0000.8,0011.00,0007.11,0006.76
2022-07-29 03:48:00,,0831.1,5.01,0.00,31.4,28.2,00.0,39.5,32.1,34.2,0000.9,0011.00,0007.09,0006.73
2022-07-29 03:49:00,,0831.0,5.00,0.00,31.4,28.3,00.0,39.5,32.1,34.2,0000.9,0011.03,0007.10,0006.72
2022-07-29 03:50:00,,0831.0,5.00,0.00,31.3,28.4,00.0,39.5,32.1,34.2,0000.6,0011.00,0007.09,0006.70
2022-07-29 03:51:00,,0831.0,4.99,0.00,31.3,28.5,00.0,39.5,32.1,34.2,0000.4,0010.98,0007.06,0006.68
2022-07-29 03:52:00,,0831.0,5.01,0.00,31.3,28.6,00.0,39.6,32.1,34.4,0000.5,0010.91,0007.00,0006.63
2022-07-29 03:53:00,,0831.0,5.01,0.00,31.2,28.7,00.0,39.6,32.2,34.4,0000.2,0010.76,0006.93,0006.60
2022-07-29 03:54:00,,0831.0,4.99,0.00,31.2,28.7,00.0,39.6,32.2,34.3,0000.5,0010.67,0006.91,0006.57
2022-07-29 03:55:00,,0831.0,5.00,0.00,31.2,28.8,00.0,39.6,32.2,34.4,0000.6,0010.77,0006.91,0006.56
2022-07-29 03:56:00,,0831.0,5.00,0.00,31.2,28.9,00.0,39.6,32.2,34.4,0000.8,0010.40,0006.89,0006.56
2022-07-29 03:57:00,,0831.0,5.00,0.00,31.1,28.9,00.0,39.6,32.2,34.4,0000.1,0009.73,0006.89,0006.58
2022-07-29 03:58:00,,0831.0,5.00,0.00,31.1,29.0,00.0,39.6,32.2,34.5,0000.1,0009.43,0006.88,0006.58
2022-07-29 03:59:00,,0831.0,5.01,0.00,31.1,29.0,00.0,39.6,32.3,34.4,-000.1,0009.49,0006.92,0006.61
